Location: Newark
(44.4156°N, 12.1972°E)
Time: 09:20:27
(UTC+00:00)

STARLINK-1092 - Pass Details

Date: 02 February 2020
Orbit: 348 x 351 km, 53.0° (Epoch: 18 February)

Event Time Altitude Azimuth Distance (km) Brightness Sun altitude
Rises 17:54:51 0° 292° (WNW) 2,159 7.8 -17.0°
Reaches altitude 10° 17:57:16 10° 272° (W) 1,312 6.8 -17.4°
Maximum altitude 17:59:19 18° 227° (SW) 957 5.5 -17.7°
Drops below altitude 10° 18:01:23 10° 181° (S) 1,305 5.6 -18.1°
Enters shadow 18:02:18 - 171° (S) 1,601 6.0 -18.3°
